Home   Weather   Bitterfeld-Wolfen   Past weeks

Flag for Germany Past Weather in Bitterfeld-Wolfen, Saxony-Anhalt, Germany — Yesterday and Last 2 Weeks

Now
23 °F

Light snow. Passing clouds.


Feels Like: 23 °F
Forecast: 15 / 23 °F
Wind: 2 mph from Northeast

Location: Leipzig-Schkeuditz

Current Time: Jan 18, 2017 at 7:12:59 am

Latest Report: Jan 18, 2017 at 6:50 am


Visibility: 4 mi

Pressure: 30.69 "Hg

Humidity: 100%

Dew Point: 23 °F

Location of Bitterfeld-WolfenLocation

Past Weather in Bitterfeld-Wolfen — Graph

°F

Bitterfeld-Wolfen Temperature Yesterday

Maximum temperature yesterday: 27 °F (at 12:20 am)
Minimum temperature yesterday: 23 °F (at 6:20 pm)
Average temperature yesterday: 25 °F

High & Low Weather Summary for the Past Weeks

 TemperatureHumidityPressure
High39 °F (Jan 4, 10:50 am)100% (Jan 4, 5:50 pm)30.74 "Hg (Jan 4, 5:50 pm)
Low12 °F (Jan 7, 12:20 am)59% (Jan 7, 2:50 pm)29.00 "Hg (Jan 13, 6:20 am)
Average30 °F87%30.06 "Hg
* Reported Jan 3 6:20 am — Jan 18 6:20 am, Bitterfeld-Wolfen, Weather by CustomWeather, © 2017

Note: Actual official high and low records may vary slightly from our data, if they occured in-between our weather recording intervals... More about our weather records

Advertising

Bitterfeld-Wolfen Weather History for the Previous 24 Hours

Scroll right to see more
 ConditionsComfort  
Time TempWeatherWind HumidityBarometerVisibility
6:20 am
Wed, Jan 18
23 °FLight snow. Passing clouds.3 mph93%30.69 "Hg4 mi
5:50 am23 °FLight snow. Passing clouds.2 mph93%30.69 "Hg4 mi
5:20 am23 °FLight snow. Ice fog.2 mph93%30.69 "Hg3 mi
4:50 am23 °FLight snow. Ice fog.5 mph93%30.69 "Hg3 mi
4:20 am23 °FLight snow. Ice fog.5 mph93%30.69 "Hg3 mi
3:50 am23 °FLight snow. Ice fog.3 mph93%30.69 "Hg2 mi
3:20 am23 °FLight snow. Ice fog.3 mph100%30.69 "Hg2 mi
2:50 am23 °FIce fog.5 mph93%30.69 "Hg3 mi
2:20 am23 °FIce fog.3 mph93%30.69 "Hg3 mi
1:50 am23 °FLight snow. Ice fog.5 mph100%30.69 "Hg3 mi
1:20 am23 °FLight snow. Ice fog.5 mph100%30.69 "Hg2 mi
12:50 am23 °FLight snow. Ice fog.5 mph100%30.69 "Hg2 mi
12:20 am23 °FLight snow. Ice fog.6 mph93%30.69 "Hg1 mi
11:50 pm
Tue, Jan 17
23 °FLight snow. Ice fog.5 mph100%30.69 "Hg1 mi
11:20 pm23 °FIce fog.5 mph100%30.69 "Hg1 mi
10:50 pm23 °FIce fog.7 mph100%30.69 "Hg1 mi
10:20 pm23 °FIce fog.7 mph100%30.69 "Hg1 mi
9:50 pm23 °FIce fog.6 mph100%30.69 "Hg1 mi
9:20 pm23 °FIce fog.1 mph100%30.69 "Hg1 mi
8:50 pm23 °FIce fog.3 mph93%30.66 "Hg1 mi
8:20 pm23 °FIce fog.5 mph93%30.66 "Hg1 mi
7:50 pm23 °FIce fog.5 mph100%30.66 "Hg1 mi
7:20 pm23 °FIce fog.5 mph100%30.66 "Hg1 mi
6:50 pm23 °FIce fog.6 mph100%30.66 "Hg1 mi
6:20 pm23 °FIce fog.6 mph100%30.66 "Hg2 mi
5:50 pm25 °FIce fog.7 mph93%30.63 "Hg3 mi
5:20 pm25 °FIce fog.8 mph93%30.63 "Hg3 mi
4:50 pm25 °FPassing clouds.8 mph93%30.63 "Hg4 mi
4:20 pm25 °FBroken clouds.8 mph93%30.63 "Hg4 mi
3:50 pm25 °FBroken clouds.10 mph100%30.63 "Hg4 mi
3:20 pm25 °FBroken clouds.9 mph93%30.60 "Hg4 mi
2:50 pm25 °FBroken clouds.10 mph100%30.60 "Hg3 mi
2:20 pm25 °FBroken clouds.7 mph93%30.60 "Hg3 mi
1:50 pm25 °FBroken clouds.7 mph100%30.60 "Hg3 mi
1:20 pm25 °FBroken clouds.8 mph100%30.60 "Hg4 mi
12:50 pm25 °FPartly sunny.8 mph93%30.60 "Hg4 mi
12:20 pm27 °FIce fog.8 mph93%30.60 "Hg2 mi
11:50 am25 °FIce fog.9 mph100%30.60 "Hg1 mi
11:20 am25 °FIce fog.8 mph100%30.60 "Hg0 mi
10:50 am25 °FIce fog.8 mph100%30.57 "Hg0 mi
10:20 am25 °FIce fog.9 mph100%30.57 "Hg0 mi
9:50 am27 °FScattered clouds.6 mph86%30.57 "Hg4 mi
9:20 am27 °FScattered clouds.5 mph93%30.54 "Hg4 mi
8:50 am27 °FPartly sunny.5 mph93%30.54 "Hg4 mi
8:20 am27 °FPartly sunny.6 mph93%30.54 "Hg4 mi
7:50 am27 °FPassing clouds.3 mph93%30.51 "Hg4 mi
7:20 am27 °FPassing clouds.5 mph93%30.51 "HgN/A
Weather by CustomWeather, © 2017

See weather overviewHow to use our weather pages